Flag for Micronesia Weather past 2 weeks in Kolonia, Ponape, Micronesia

Now
82 °F

Mostly cloudy.


Feels Like: 87 °F
Forecast: 80 / 84 °F
Wind: 3 mph from Northeast

Location: Pohnpei

Current Time: Jan 31, 2015 at 8:13:46 PM

Latest Report: Jan 31, 2015 at 7:52 PM


Visibility: 15 mi

Pressure: 29.82 "Hg

Humidity: 74%

Dew point: 73 °F

Location of KoloniaLocation

Historic Weather in Kolonia — Graph

°F

Kolonia temperature yesterday

Maximum temperature yesterday: 86 °F (at 12:56 PM)
Minimum temperature yesterday: 80 °F (at 7:50 AM)
Average temperature yesterday: 83 °F

Past Weeks' High & Low Weather Summary

 TemperatureHumidityPressure
High88 °F (Jan 23, 1:55 PM)99% (Jan 22, 2:50 AM)29.97 "Hg (Jan 22, 2:50 AM)
Low72 °F (Jan 25, 4:51 AM)57% (Jan 24, 4:52 AM)29.71 "Hg (Jan 29, 3:52 PM)
Average82 °F78%29.85 "Hg
* Reported Jan 16 6:55 PM — Jan 31 6:51 PM, Kolonia, Weather by CustomWeather, © 2014

Note: Actual official high and low records may vary slightly from our data, if they occured in-between our weather recording intervals... More about our weather records

Advertising

Kolonia weather history for previous 24 hours

 ConditionsComfort  
Time TempWeatherWind HumidityBarometerVisibility
6:51 PM
Jan 31
82 °FMostly cloudy.5 mph79%29.80 "Hg15 mi
5:51 PM83 °FMostly cloudy.6 mph79%29.77 "Hg15 mi
4:50 PM83 °FMostly cloudy.9 mph69%29.75 "Hg15 mi
3:50 PM85 °FMostly cloudy.12 mph72%29.73 "Hg15 mi
2:50 PM87 °FMostly cloudy.12 mph68%29.73 "Hg15 mi
1:50 PM85 °FPartly sunny.9 mph71%29.73 "Hg15 mi
12:50 PM86 °FPartly sunny.12 mph67%29.76 "Hg15 mi
11:55 AM85 °FPartly sunny.12 mph69%29.79 "Hg15 mi
10:56 AM85 °FMostly cloudy.12 mph70%29.82 "Hg15 mi
9:50 AM83 °FPartly sunny.9 mph71%29.82 "Hg15 mi
8:50 AM83 °FPartly sunny.9 mph77%29.82 "Hg15 mi
7:55 AM82 °FMostly cloudy.8 mph76%29.80 "Hg15 mi
6:55 AM81 °FMostly cloudy.9 mph76%29.78 "Hg15 mi
5:53 AM81 °FMostly cloudy.6 mph75%29.76 "Hg15 mi
4:54 AM82 °FOvercast.6 mph74%29.75 "Hg15 mi
3:55 AM81 °FOvercast.5 mph79%29.75 "Hg15 mi
2:55 AM81 °FMostly cloudy.7 mph78%29.75 "Hg15 mi
1:50 AM82 °FMostly cloudy.6 mph76%29.77 "Hg15 mi
12:50 AM82 °FOvercast.5 mph75%29.79 "Hg15 mi
11:53 PM
Jan 30
82 °FOvercast.9 mph75%29.80 "Hg15 mi
10:53 PM82 °FOvercast.3 mph75%29.80 "Hg15 mi
9:51 PM82 °FOvercast.5 mph78%29.81 "Hg15 mi
8:52 PM82 °FMostly cloudy.3 mph79%29.80 "Hg15 mi
Weather by CustomWeather, © 2014

See weather overviewHow to use our weather pages